This is the latest recevied weather packets stored in our database for station/object N7WSS. If no packets are shown the sender has not sent any weather packets the latest 10 day(s).
| Time | Temp. | Humidity | Pressure | Rain* | Wind** | Luminosity | Snow |
|---|---|---|---|---|---|---|---|
| 1787926478 | 28.89° C | 42% | 1015.7 hPa | 0 mm | - | - | - |
| 1787926177 | 28.89° C | 43% | 1016.1 hPa | 0 mm | - | - | - |
| 1787925877 | 28.89° C | 43% | 1015.6 hPa | 0 mm | - | - | - |
| 1787925577 | 28.89° C | 43% | 1016 hPa | 0 mm | - | - | - |
| 1787925272 | 28.89° C | 43% | 1016 hPa | 0 mm | - | - | - |
| 1787924971 | 28.89° C | 44% | 1015.6 hPa | 0 mm | - | - | - |
| 1787924666 | 28.33° C | 45% | 1016 hPa | 0 mm | - | - | - |
| 1787924361 | 28.33° C | 45% | 1015.6 hPa | 0 mm | - | - | - |
| 1787924055 | 28.89° C | 43% | 1015.6 hPa | 0 mm | - | - | - |
| 1787923750 | 28.89° C | 42% | 1015.7 hPa | 0 mm | - | - | - |
| 1787923445 | 28.33° C | 42% | 1015.5 hPa | 0 mm | - | - | - |
| 1787923140 | 28.33° C | 43% | 1015.4 hPa | 0 mm | - | - | - |
| 1787922835 | 28.33° C | 43% | 1015.4 hPa | 0 mm | - | - | - |
| 1787922534 | 28.33° C | 43% | 1015.4 hPa | 0 mm | - | - | - |
| 1787922234 | 28.33° C | 43% | 1015.4 hPa | 0 mm | - | - | - |
| 1787921931 | 27.78° C | 45% | 1015.2 hPa | 0 mm | - | - | - |
| 1787921626 | 28.33° C | 44% | 1015.1 hPa | 0 mm | - | - | - |
| 1787921325 | 28.33° C | 44% | 1015.2 hPa | 0 mm | - | - | - |
| 1787921022 | 28.33° C | 44% | 1015.1 hPa | 0 mm | - | - | - |
| 1787920717 | 27.22° C | 45% | 1015.2 hPa | 0 mm | - | - | - |
| 1787920416 | 27.22° C | 46% | 1015.2 hPa | 0 mm | - | - | - |
| 1787920113 | 27.22° C | 46% | 1015.2 hPa | 0 mm | - | - | - |
| 1787919808 | 26.67° C | 46% | 1015.2 hPa | 0 mm | - | - | - |
| 1787919507 | 26.67° C | 47% | 1015 hPa | 0 mm | - | - | - |
| 1787919204 | 26.67° C | 47% | 1014.8 hPa | 0 mm | - | - | - |
* Rain latest hour (hover to see other rain measurements)
** Current wind speed in m/s (hover to see current wind gust speed)